Weather reports worldwide

Advertisment
Jativa, Spain (8290): temperature & dewpoint: 14.06.2019 06:00:00 - 20.06.2019 06:00:00 (CEST)Jativa, Spain (8290): wind speed & gusts: 14.06.2019 06:00:00 - 20.06.2019 06:00:00 (CEST)Jativa, Spain (8290): wind direction: 14.06.2019 06:00:00 - 20.06.2019 06:00:00 (CEST)Jativa, Spain (8290): reduced air pressure: 14.06.2019 06:00:00 - 20.06.2019 06:00:00 (CEST)Jativa, Spain (8290): visibility: 14.06.2019 06:00:00 - 20.06.2019 06:00:00 (CEST)Jativa, Spain (8290): sunshine duration: 14.06.2019 06:00:00 - 20.06.2019 06:00:00 (CEST)Jativa, Spain (8290): precipitation: 14.06.2019 06:00:00 - 20.06.2019 06:00:00 (CEST)
Date & Time tt [°C] td [°C] ff [km/h] ff [kn] fx [km/h] fx [kn] dd ppp [hPa] vv [km] sd [min] rr [mm]
20.06.2019 06:00:00 - - - - - - - - - - -
20.06.2019 05:00:00 18,5 12,4 8 4 11 6 WSW 1011,6 20 0 0,0
20.06.2019 04:00:00 19,8 12,5 5 3 10 5 SW 1011,8 20 0 0,0
20.06.2019 03:00:00 19,6 13,8 5 3 10 5 W 1011,7 20 0 0,0
20.06.2019 02:00:00 20,7 14,3 6 4 10 5 WSW 1011,8 20 0 -
20.06.2019 01:00:00 22,0 14,4 3 2 6 4 NW 1011,9 20 0 0,0
20.06.2019 00:00:00 22,7 15,1 6 3 16 8 NE 1011,8 20 0 0,0
19.06.2019 23:00:00 24,5 14,3 8 4 19 10 E 1011,3 20 0 0,0
19.06.2019 22:00:00 27,5 13,5 8 4 20 11 NE 1010,0 20 16 0,0
19.06.2019 21:00:00 32,7 10,0 7 4 18 10 ENE 1009,2 20 60 0,0
19.06.2019 20:00:00 33,9 9,8 9 5 24 13 NE 1008,8 20 60 -
19.06.2019 19:00:00 33,9 9,8 16 9 28 15 ENE 1008,7 20 60 0,0
19.06.2019 18:00:00 34,6 9,0 15 8 26 14 ENE 1009,1 20 60 0,0
19.06.2019 17:00:00 34,8 10,6 19 10 35 19 ENE 1009,5 20 60 0,0
19.06.2019 16:00:00 - - - - - - - - - - -
19.06.2019 15:00:00 - - - - - - - - - - -
19.06.2019 14:00:00 34,5 7,6 9 5 17 9 N 1011,3 20 60 -
19.06.2019 13:00:00 33,0 7,7 6 3 14 8 NW 1012,1 17 60 0,0
19.06.2019 12:00:00 31,8 8,1 7 4 20 11 WNW 1012,6 20 60 0,0
19.06.2019 11:00:00 - - - - - - - - - - -
19.06.2019 10:00:00 - - - - - - - - - - -
19.06.2019 09:00:00 - - - - - - - - - - -
19.06.2019 08:00:00 - - - - - - - - - - -
19.06.2019 07:00:00 - - - - - - - - - - -
19.06.2019 06:00:00 - - - - - - - - - - -
19.06.2019 05:00:00 - - - - - - - - - - -
19.06.2019 04:00:00 - - - - - - - - - - -
19.06.2019 03:00:00 - - - - - - - - - - -
19.06.2019 02:00:00 - - - - - - - - - - -
19.06.2019 01:00:00 - - - - - - - - - - -
19.06.2019 00:00:00 - - - - - - - - - - -
18.06.2019 23:00:00 - - - - - - - - - - -
18.06.2019 22:00:00 - - - - - - - - - - -
18.06.2019 21:00:00 - - - - - - - - - - -
18.06.2019 20:00:00 - - - - - - - - - - -
18.06.2019 19:00:00 31,8 13,6 16 9 30 16 N 1010,4 20 60 0,0
18.06.2019 18:00:00 33,9 11,1 19 10 32 17 N 1010,1 20 60 0,0
18.06.2019 17:00:00 35,7 8,5 13 7 27 15 NNW 1010,2 20 60 0,0
18.06.2019 16:00:00 34,6 12,3 12 7 26 14 NNW 1011,0 20 60 0,0
18.06.2019 15:00:00 33,1 11,0 16 9 27 14 N 1011,7 20 60 0,0
18.06.2019 14:00:00 31,6 12,4 17 9 25 13 N 1012,6 20 60 -
18.06.2019 13:00:00 31,2 9,9 11 6 21 12 N 1013,0 20 60 0,0
18.06.2019 12:00:00 29,6 7,4 7 4 16 9 NE 1013,6 20 60 0,0
18.06.2019 11:00:00 26,8 10,5 7 4 13 7 ENE 1014,3 20 60 0,0
18.06.2019 10:00:00 23,9 11,2 3 2 9 5 ENE 1014,9 20 60 0,0
18.06.2019 09:00:00 20,2 9,2 5 3 9 5 WNW 1015,2 20 60 0,0
18.06.2019 08:00:00 16,8 11,6 6 3 13 7 WSW 1015,2 20 51 -
18.06.2019 07:00:00 15,3 12,2 6 3 11 6 WSW 1015,1 20 0 0,0
18.06.2019 06:00:00 15,8 13,0 6 4 13 7 WSW 1014,8 20 0 0,0
18.06.2019 05:00:00 16,5 13,6 2 1 11 6 W 1014,7 20 0 0,0
18.06.2019 04:00:00 17,0 14,6 7 4 11 6 W 1015,3 17 0 0,0
18.06.2019 03:00:00 17,9 15,2 5 3 6 4 W 1015,6 19 0 0,0
18.06.2019 02:00:00 19,0 15,7 3 2 5 3 E 1015,9 17 0 -
18.06.2019 01:00:00 19,6 15,9 3 2 7 4 NNE 1015,9 18 0 0,0
18.06.2019 00:00:00 20,6 15,8 4 2 7 4 E 1015,9 19 0 0,0
17.06.2019 23:00:00 21,5 15,6 6 3 16 9 NE 1015,2 20 0 0,0
17.06.2019 22:00:00 23,1 14,6 11 6 23 12 ENE 1014,3 20 8 0,0
17.06.2019 21:00:00 28,3 12,6 8 4 30 16 NNE 1013,2 20 57 0,0
17.06.2019 20:00:00 31,8 6,8 20 11 31 17 N 1012,1 20 60 -
17.06.2019 19:00:00 34,4 5,8 15 8 36 19 N 1011,6 20 60 0,0
17.06.2019 18:00:00 34,7 6,1 15 8 27 15 NE 1011,9 20 60 0,0
17.06.2019 17:00:00 34,6 5,1 19 11 37 20 ENE 1012,2 20 60 0,0
17.06.2019 16:00:00 35,3 5,6 11 6 28 15 NNE 1012,5 20 60 0,0
17.06.2019 15:00:00 34,8 2,3 9 5 21 12 NE 1013,2 20 60 0,0
17.06.2019 14:00:00 33,4 2,3 8 4 20 11 ENE 1014,1 20 60 -
17.06.2019 13:00:00 32,0 5,5 5 3 16 9 ENE 1014,8 20 60 0,0
17.06.2019 12:00:00 30,4 7,0 5 3 14 7 SE 1015,6 20 60 0,0
17.06.2019 11:00:00 27,0 10,6 4 2 12 7 E 1016,3 16 60 0,0
17.06.2019 10:00:00 23,4 11,1 3 2 10 6 WSW 1016,8 18 60 0,0
17.06.2019 09:00:00 19,9 12,6 5 3 9 5 WSW 1017,2 20 60 0,0
17.06.2019 08:00:00 16,8 13,4 4 2 9 5 W 1017,1 17 57 -
17.06.2019 07:00:00 14,6 12,6 7 4 10 5 WSW 1016,9 17 0 0,0
17.06.2019 06:00:00 15,0 13,2 7 4 10 5 WSW 1017,0 20 0 0,0
17.06.2019 05:00:00 15,8 13,5 5 3 10 5 SW 1017,1 19 0 0,0
17.06.2019 04:00:00 16,0 13,9 7 4 11 6 W 1017,6 17 0 0,0
17.06.2019 03:00:00 16,8 14,6 6 3 10 6 W 1018,0 17 0 0,0
17.06.2019 02:00:00 17,3 15,3 2 1 6 4 W 1018,2 14 0 -
17.06.2019 01:00:00 18,5 15,5 2 1 5 3 SSW 1018,5 20 0 0,0
17.06.2019 00:00:00 18,8 15,4 5 3 8 4 N 1018,6 18 0 0,0
16.06.2019 23:00:00 20,1 16,0 5 3 11 6 NE 1018,3 19 0 0,0
16.06.2019 22:00:00 20,9 14,3 4 2 9 5 WNW 1017,5 20 0 0,0
16.06.2019 21:00:00 22,1 14,5 4 2 11 6 NNW 1017,7 20 0 0,0
16.06.2019 20:00:00 23,5 15,0 8 4 22 12 WNW 1017,4 20 0 -
16.06.2019 19:00:00 24,0 13,3 10 5 23 12 NNW 1017,4 20 0 0,0
16.06.2019 18:00:00 25,0 14,1 16 9 26 14 N 1017,5 20 0 0,0
16.06.2019 17:00:00 26,8 12,4 12 6 33 18 N 1017,9 20 4 0,0
16.06.2019 16:00:00 26,7 13,5 16 9 30 16 N 1018,1 20 45 0,0
16.06.2019 15:00:00 27,0 14,0 15 8 28 15 N 1018,9 16 26 0,0
16.06.2019 14:00:00 26,0 13,5 16 8 26 14 N 1019,6 20 52 -
16.06.2019 13:00:00 25,5 13,1 8 4 23 13 ENE 1019,7 20 60 0,0
16.06.2019 12:00:00 23,5 13,4 9 5 22 12 NNE 1020,5 20 47 0,0
16.06.2019 11:00:00 22,7 13,0 8 4 17 9 NE 1020,8 18 49 0,0
16.06.2019 10:00:00 22,3 13,7 6 3 14 8 E 1020,8 20 60 0,0
16.06.2019 09:00:00 20,6 13,8 2 1 9 5 WSW 1020,5 20 46 0,0
16.06.2019 08:00:00 17,8 11,6 6 3 12 6 WSW 1020,3 20 44 -
16.06.2019 07:00:00 15,7 11,2 7 4 13 7 W 1020,1 20 0 0,0
16.06.2019 06:00:00 15,6 11,6 7 4 12 6 W 1019,8 20 0 0,0
16.06.2019 05:00:00 15,9 11,2 8 5 13 7 WSW 1019,7 20 0 0,0
16.06.2019 04:00:00 16,6 11,9 7 4 10 5 WSW 1019,8 20 0 0,0
16.06.2019 03:00:00 17,0 12,3 8 4 11 6 W 1019,6 20 0 0,0
16.06.2019 02:00:00 18,5 12,4 6 3 9 5 W 1019,4 20 0 -
16.06.2019 01:00:00 19,3 11,8 2 1 11 6 N 1019,3 20 0 0,0
16.06.2019 00:00:00 19,9 12,4 4 2 23 12 NNE 1019,0 20 0 0,0
15.06.2019 23:00:00 21,1 13,1 12 6 23 12 NE 1018,0 20 0 0,0
15.06.2019 22:00:00 24,6 10,5 11 6 19 11 N 1015,9 20 18 0,0
15.06.2019 21:00:00 29,0 7,6 7 4 23 12 ENE 1014,8 20 60 0,0
15.06.2019 20:00:00 30,8 5,9 11 6 26 14 ENE 1014,1 20 60 -
15.06.2019 19:00:00 31,6 5,1 15 8 28 15 NE 1013,6 20 60 0,0
15.06.2019 18:00:00 34,8 0,0 12 6 35 19 WNW 1013,2 20 60 0,0
15.06.2019 17:00:00 33,8 -2,0 13 7 33 18 WSW 1013,8 20 60 0,0
15.06.2019 16:00:00 33,1 0,0 9 5 26 14 W 1014,3 20 60 0,0
15.06.2019 15:00:00 31,7 0,9 12 6 23 12 W 1014,9 20 60 0,0
15.06.2019 14:00:00 29,9 3,0 6 4 22 12 NW 1015,9 20 60 -
15.06.2019 13:00:00 28,4 2,5 6 4 26 14 SSE 1016,6 20 60 0,0
15.06.2019 12:00:00 27,4 3,0 11 6 26 14 NW 1017,1 20 60 0,0
15.06.2019 11:00:00 25,5 2,9 9 5 25 13 WSW 1017,5 20 60 0,0
15.06.2019 10:00:00 23,6 2,5 10 5 21 12 SW 1017,7 20 60 0,0
15.06.2019 09:00:00 21,7 3,8 10 6 16 9 WSW 1017,3 20 51 0,0
15.06.2019 08:00:00 19,6 4,1 8 5 20 11 WSW 1016,6 20 10 -
15.06.2019 07:00:00 19,3 3,0 7 4 16 9 WSW 1016,2 20 0 0,0
15.06.2019 06:00:00 17,9 4,1 6 3 18 10 W 1015,5 20 0 0,0
15.06.2019 05:00:00 19,2 2,9 8 4 16 9 WSW 1014,8 20 0 0,0
15.06.2019 04:00:00 20,4 3,2 5 3 16 9 W 1014,6 20 0 0,0
15.06.2019 03:00:00 21,7 0,9 10 6 19 10 W 1014,4 20 0 0,0
15.06.2019 02:00:00 23,7 -2,0 10 5 20 11 SW 1013,9 20 0 -
15.06.2019 01:00:00 25,4 0,9 11 6 27 15 SW 1013,3 20 0 0,0
15.06.2019 00:00:00 25,8 6,8 14 7 22 12 SW 1012,6 20 0 0,0
14.06.2019 23:00:00 26,1 10,3 4 2 20 11 W 1011,9 20 0 0,0
14.06.2019 22:00:00 28,4 10,2 10 5 30 16 W 1010,7 20 11 0,0
14.06.2019 21:00:00 31,5 9,7 12 7 23 12 SW 1009,4 20 60 0,0
14.06.2019 20:00:00 32,7 8,9 13 7 28 15 ENE 1008,3 20 60 -
14.06.2019 19:00:00 35,4 1,7 13 7 36 19 WSW 1007,7 20 60 0,0
14.06.2019 18:00:00 35,2 3,6 10 5 48 26 WSW 1008,2 20 60 0,0
14.06.2019 17:00:00 34,7 1,1 18 10 35 19 WSW 1008,5 20 60 0,0
14.06.2019 16:00:00 34,4 3,0 19 11 44 24 W 1008,7 20 60 0,0
14.06.2019 15:00:00 32,7 3,6 7 4 21 11 NW 1008,9 20 60 0,0
14.06.2019 14:00:00 31,2 4,8 5 3 18 10 N 1009,7 20 60 -
14.06.2019 13:00:00 29,3 7,3 7 4 19 10 SSE 1010,2 20 60 0,0
14.06.2019 12:00:00 26,8 9,2 5 3 16 9 ESE 1010,8 20 54 0,0
14.06.2019 11:00:00 24,6 8,9 5 3 16 9 W 1011,0 20 45 0,0
14.06.2019 10:00:00 21,7 7,6 2 1 15 8 SE 1010,8 20 18 0,0
14.06.2019 09:00:00 19,5 8,3 4 2 12 7 ESE 1011,0 20 37 0,0
14.06.2019 08:00:00 16,9 7,8 6 4 16 9 W 1011,2 20 16 -
14.06.2019 07:00:00 16,0 10,8 8 4 22 12 W 1010,9 20 0 0,0
14.06.2019 06:00:00 15,7 11,9 6 3 12 6 NNW 1009,4 20 0 0,0

tt = temperature
td = dewpoint
ff = wind speed
fx = gusts
dd = wind direction
ppp = reduced air pressure
vv = visibility
sd = sunshine duration
rr = precipitation

Next stations